GPS BIIR-8 (PRN 16)

Last updated on Sat Nov 15 2025 00:03:18 GMT+0000 (Coordinated Universal Time)

1 27663U 03005A 25318.73366105 -.00000036 00000+0 00000+0 0 9990 2 27663 54.9310 223.4921 0146247 51.3943 319.3519 2.00572438167017
UTC large
Height (km)
Speed (km/s)
/
Latitude / Longitude
Inclination (degrees)
Orbital Period (minutes)
Azimuth
Elevation
Range (km)
Doppler Factor

Next 0 passes for location: London (51.5072 / 0.1276)

Sorry there are no passes over London.